[[{"header":{"parameterUnit":"m.s-1","parameterCategory":1,"la1":30.2991,"la2":30.254,"lo1":-89.0895,"lo2":-89.0444,"dy":0.0017,"dx":0.0017,"nx":28,"ny":28,"refTime":"2025-08-23T09:00:00:Z","depth":0,"parameterNumber":2,"parameterNumberName":"U-component_of_WINDS"},"data":[0,0,0,0,0,0,0,0,0,0,0,0,0,0,0,0,0,0,0,0,0,0,0,0,0,0,0,0,0,0,0,0,0,0,0,0,0,0,0,0,0,0,0,0,0,0,0,0,0,0,0,0,0,0,0,0,0,0,1.3319,1.332,0,1.3357,1.3358,1.3358,1.3366,1.3366,1.3365,1.3365,1.3406,1.3407,1.3409,0,0,0,0,0,0,0,0,0,0,0,0,0,1.3256,1.3257,1.3319,1.332,1.332,1.3357,1.3358,1.3358,1.3366,1.3366,1.3365,1.3365,1.3406,1.3407,1.3409,0,0,0,0,0,0,0,0,0,0,0,0,0,1.3288,1.3258,1.3319,1.3329,1.333,1.3357,1.3358,1.3358,1.3366,1.3366,1.3365,1.3365,1.3405,1.3407,1.3409,1.3431,0,0,1.3415,1.3416,0,0,0,0,0,0,0,0,1.3286,1.329,1.3327,1.3328,1.3329,1.3356,1.3351,1.3383,1.3366,1.3352,1.3365,1.3365,1.339,1.3393,1.3401,1.3432,1.3434,1.3416,1.3417,1.3418,1.3418,0,0,0,0,0,0,0,1.3284,1.3289,1.3334,1.3327,1.3329,1.3332,1.3336,1.3357,1.3373,1.3354,1.3354,1.3358,1.3391,1.3399,1.3402,1.3435,1.3415,1.3417,1.3419,1.3419,1.3487,1.3487,0,0,0,0,0,0,1.328,1.3287,1.3333,1.3336,1.3306,1.3333,1.3338,1.3348,1.3373,1.3376,1.3359,1.3359,1.3396,1.34,1.3404,1.3432,1.3418,1.342,1.3421,1.3486,1.3487,1.3487,0,0,0,0,0,0,1.3278,1.3284,1.3332,1.3311,1.3318,1.3335,1.3347,1.3349,1.3358,1.3377,1.338,1.3365,1.3396,1.3401,1.3424,1.3433,1.342,1.3422,1.3485,1.3486,1.3487,1.3486,0,0,0,0,0,0,1.3276,1.3283,1.3291,1.3311,1.3319,1.335,1.3347,1.335,1.3361,1.3361,1.3383,1.3386,1.3396,1.3421,1.3426,1.3436,1.3424,1.3485,1.3486,1.3487,1.3485,1.3487,1.3488,0,0,0,0,0,1.3274,1.3289,1.3291,1.3297,1.3328,1.3351,1.3355,1.3365,1.3362,1.337,1.3383,1.3386,1.3431,1.3423,1.3429,1.3439,1.3484,1.3485,1.3487,1.3485,1.3487,1.3488,0,0,0,0,0,0,1.327,1.3292,1.3294,1.3316,1.3332,1.3352,1.3363,1.3366,1.3383,1.3383,1.3395,1.34,1.3423,1.3433,1.3424,1.3462,1.3458,1.346,1.3454,1.3456,1.3457,1.3455,1.3426,0,0,0,0,0,1.3271,1.3287,1.3306,1.3323,1.3331,1.3345,1.3356,1.3362,1.3378,1.3385,1.3399,1.3416,1.3434,1.3445,1.3463,1.3487,1.3492,1.3497,1.3498,1.3499,1.3502,1.3516,1.3519,1.3491,1.3491,1.3491,0,0,1.3275,1.3289,1.3298,1.3323,1.3335,1.3352,1.3351,1.3368,1.3381,1.3388,1.3411,1.3421,1.3441,1.3465,1.3476,1.3474,1.351,1.3501,1.3501,1.3503,1.3518,1.352,1.3522,1.3492,1.3492,1.3492,0,0,1.329,1.3302,1.3318,1.3331,1.3349,1.3359,1.3363,1.3383,1.339,1.3413,1.3419,1.3435,1.3465,1.3479,1.349,1.3511,1.3515,1.3517,1.3524,1.3538,1.354,1.3542,1.355,1.3553,1.3519,1.3519,1.3519,0,1.3292,1.3317,1.3326,1.3344,1.3355,1.3361,1.3379,1.3391,1.3415,1.3423,1.342,1.3459,1.3473,1.35,1.3506,1.3514,1.352,1.3514,1.3538,1.3541,1.3543,1.3551,1.3554,1.3519,1.3519,1.3519,1.3519,0,1.3319,1.3336,1.3347,1.337,1.3382,1.3399,1.3413,1.3424,1.343,1.344,1.3464,1.348,1.3502,1.3509,1.3514,1.3537,1.3536,1.3536,1.3532,1.3545,1.3553,1.3556,1.3519,1.3519,1.3519,1.3519,0,0,1.3332,1.336,1.3364,1.3375,1.3396,1.341,1.3428,1.3449,1.3459,1.3475,1.3491,1.3517,1.3518,1.353,1.3538,1.355,1.3567,1.3549,1.3549,1.3552,1.3594,1.3595,1.3598,1.3569,1.357,1.357,1.3593,0,1.335,1.3382,1.3392,1.3419,1.3436,1.3442,1.3458,1.3474,1.3484,1.35,1.3512,1.353,1.3529,1.3536,1.3549,1.3562,1.3575,1.356,1.3586,1.3586,1.3581,1.3602,1.3603,1.3623,1.3596,1.3597,1.3597,0,1.3376,1.3392,1.3421,1.3441,1.3449,1.3463,1.3483,1.3498,1.3516,1.3522,1.3537,1.3543,1.3563,1.3558,1.3587,1.3576,1.3587,1.3595,1.3596,1.3599,1.3593,1.3607,1.363,1.3633,1.3602,1.3601,1.3601,0,1.3384,1.3413,1.3435,1.3443,1.3467,1.3477,1.3487,1.3505,1.3517,1.3535,1.3543,1.3563,1.3574,1.359,1.3602,1.3597,1.363,1.3625,1.3637,1.3637,1.3644,1.3644,1.367,1.365,1.365,1.365,1.365,0,1.3404,1.3421,1.3439,1.3452,1.3472,1.3483,1.3503,1.3514,1.353,1.3546,1.3553,1.3568,1.3583,1.36,1.361,1.3633,1.3638,1.3644,1.3647,1.3644,1.3643,1.3652,1.3651,1.3651,1.3651,1.365,1.365,0,1.3416,1.3428,1.3452,1.3473,1.3478,1.3492,1.351,1.3524,1.3534,1.3555,1.356,1.3577,1.3598,1.3612,1.3638,1.3645,1.367,1.3672,1.3664,1.3665,1.3677,1.3676,1.371,1.3716,1.3691,1.3691,1.3692,0,1.3428,1.3442,1.3464,1.3475,1.3486,1.3503,1.3515,1.3527,1.354,1.3562,1.3573,1.3594,1.3612,1.3645,1.366,1.3681,1.3684,1.3695,1.3687,1.3684,1.3685,1.3685,1.3687,1.3696,1.3696,1.3696,1.3697,0,1.3449,1.3455,1.3472,1.3491,1.3505,1.3521,1.3537,1.3546,1.3561,1.3575,1.3596,1.361,1.3637,1.3658,1.3681,1.3692,1.3698,1.3699,1.3703,1.37,1.3696,1.3699,1.3668,1.3698,1.3698,1.3698,1.3698,1.3698,1.3463,1.3475,1.3493,1.3512,1.3525,1.354,1.3554,1.3566,1.3584,1.3607,1.3613,1.3635,1.3654,1.3684,1.3697,1.3715,1.3714,1.3719,1.3721,1.3722,1.3723,1.3692,1.3719,1.3719,1.3719,1.3719,1.3719,0,1.3485,1.3496,1.3514,1.3536,1.3551,1.3553,1.3571,1.3584,1.3604,1.362,1.3637,1.3662,1.3683,1.37,1.3722,1.3734,1.3737,1.3739,1.3739,1.3742,1.3722,1.3717,1.3736,1.3736,1.3736,1.3736,1.3736,1.3736,1.3498,1.352,1.3527,1.3557,1.3568,1.359,1.36,1.3614,1.3628,1.3655,1.3672,1.3683,1.37,1.3723,1.3743,1.3747,1.3756,1.3758,1.3763,1.3745,1.3743,1.3741,1.3736,1.3759,1.3759,1.3781,1.3781,1.3781]},{"header":{"parameterUnit":"m.s-1","parameterCategory":1,"la1":30.2991,"la2":30.254,"lo1":-89.0895,"lo2":-89.0444,"dy":0.0017,"dx":0.0017,"nx":28,"ny":28,"refTime":"2025-08-23T09:00:00:Z","depth":0,"parameterNumber":3,"parameterNumberName":"V-component_of_WINDS"},"data":[0,0,0,0,0,0,0,0,0,0,0,0,0,0,0,0,0,0,0,0,0,0,0,0,0,0,0,0,0,0,0,0,0,0,0,0,0,0,0,0,0,0,0,0,0,0,0,0,0,0,0,0,0,0,0,0,0,0,-0.4761,-0.476,0,-0.4747,-0.4747,-0.4747,-0.4741,-0.4741,-0.4741,-0.4741,-0.4729,-0.4728,-0.4728,0,0,0,0,0,0,0,0,0,0,0,0,0,-0.4785,-0.4785,-0.4761,-0.476,-0.476,-0.4747,-0.4747,-0.4747,-0.4741,-0.4741,-0.4741,-0.4741,-0.4729,-0.4729,-0.4728,0,0,0,0,0,0,0,0,0,0,0,0,0,-0.4773,-0.4785,-0.4761,-0.4756,-0.4755,-0.4747,-0.4747,-0.4747,-0.4741,-0.4741,-0.4741,-0.4741,-0.4729,-0.4729,-0.4728,-0.4724,0,0,-0.4726,-0.4726,0,0,0,0,0,0,0,0,-0.4774,-0.4772,-0.4757,-0.4756,-0.4755,-0.4746,-0.4751,-0.4739,-0.4741,-0.4746,-0.4741,-0.4741,-0.4735,-0.4734,-0.4731,-0.4723,-0.4723,-0.4726,-0.4726,-0.4726,-0.4726,0,0,0,0,0,0,0,-0.4775,-0.4773,-0.4755,-0.4756,-0.4756,-0.4756,-0.4754,-0.4749,-0.4741,-0.4746,-0.4746,-0.4744,-0.4734,-0.4731,-0.4731,-0.4723,-0.4726,-0.4726,-0.4726,-0.4725,-0.4715,-0.4715,0,0,0,0,0,0,-0.4776,-0.4774,-0.4756,-0.4755,-0.4765,-0.4755,-0.4753,-0.4749,-0.4741,-0.4739,-0.4744,-0.4744,-0.4732,-0.4731,-0.473,-0.4727,-0.4726,-0.4725,-0.4725,-0.4715,-0.4715,-0.4715,0,0,0,0,0,0,-0.4777,-0.4774,-0.4756,-0.4764,-0.4762,-0.4755,-0.475,-0.4749,-0.4746,-0.4739,-0.4738,-0.4742,-0.4732,-0.4731,-0.4726,-0.4726,-0.4725,-0.4725,-0.4715,-0.4715,-0.4715,-0.4719,0,0,0,0,0,0,-0.4777,-0.4775,-0.4772,-0.4764,-0.4761,-0.4751,-0.475,-0.4748,-0.4745,-0.4744,-0.4737,-0.4736,-0.4732,-0.4727,-0.4726,-0.4726,-0.4724,-0.4715,-0.4715,-0.4715,-0.4719,-0.4719,-0.472,0,0,0,0,0,-0.4778,-0.4773,-0.4772,-0.477,-0.4758,-0.4751,-0.475,-0.4745,-0.4745,-0.4743,-0.4739,-0.4736,-0.4727,-0.4727,-0.4725,-0.4725,-0.4714,-0.4715,-0.4715,-0.4719,-0.4719,-0.472,0,0,0,0,0,0,-0.4781,-0.4772,-0.477,-0.4763,-0.4758,-0.475,-0.4747,-0.4745,-0.4741,-0.474,-0.4735,-0.4734,-0.473,-0.4727,-0.4727,-0.4722,-0.4721,-0.472,-0.4724,-0.4725,-0.4725,-0.4726,-0.4724,0,0,0,0,0,-0.4781,-0.4776,-0.4768,-0.4763,-0.476,-0.4754,-0.4751,-0.4748,-0.4743,-0.4741,-0.4737,-0.4733,-0.4729,-0.4727,-0.4722,-0.4719,-0.4718,-0.4718,-0.4718,-0.4719,-0.4719,-0.4719,-0.4719,-0.4715,-0.4715,-0.4715,0,0,-0.4781,-0.4775,-0.4772,-0.4763,-0.4759,-0.4755,-0.4753,-0.4748,-0.4745,-0.4741,-0.4736,-0.4733,-0.4728,-0.4725,-0.4723,-0.4722,-0.472,-0.4719,-0.4719,-0.4719,-0.4719,-0.4719,-0.472,-0.4715,-0.4715,-0.4715,0,0,-0.4778,-0.4772,-0.4768,-0.4764,-0.4758,-0.4755,-0.4754,-0.4747,-0.4745,-0.4741,-0.4738,-0.4736,-0.4729,-0.4726,-0.4724,-0.4724,-0.4722,-0.4723,-0.4724,-0.4725,-0.4725,-0.4726,-0.4727,-0.4728,-0.4723,-0.4723,-0.4723,0,-0.4778,-0.4771,-0.4766,-0.4762,-0.4759,-0.4756,-0.4752,-0.4749,-0.4742,-0.4741,-0.474,-0.4733,-0.473,-0.4727,-0.4727,-0.4724,-0.4725,-0.4723,-0.4725,-0.4726,-0.4726,-0.4728,-0.4728,-0.4723,-0.4723,-0.4723,-0.4723,0,-0.4773,-0.4768,-0.4765,-0.4759,-0.4756,-0.4753,-0.4749,-0.4747,-0.4745,-0.4742,-0.4739,-0.4735,-0.4731,-0.473,-0.4728,-0.4728,-0.4728,-0.4726,-0.4725,-0.4727,-0.4728,-0.4729,-0.4723,-0.4723,-0.4723,-0.4723,0,0,-0.477,-0.4763,-0.4762,-0.4761,-0.4755,-0.4752,-0.475,-0.4746,-0.4745,-0.4741,-0.474,-0.4736,-0.4735,-0.4733,-0.4731,-0.4731,-0.4734,-0.4729,-0.4729,-0.4732,-0.4736,-0.4738,-0.4738,-0.4732,-0.4732,-0.4732,-0.4737,0,-0.4767,-0.4761,-0.4758,-0.4755,-0.4752,-0.475,-0.4748,-0.4745,-0.4743,-0.4742,-0.474,-0.4737,-0.4736,-0.4735,-0.4735,-0.4733,-0.4734,-0.4733,-0.4733,-0.4733,-0.4735,-0.4739,-0.474,-0.4744,-0.4737,-0.4737,-0.4737,0,-0.4763,-0.476,-0.4756,-0.4753,-0.4752,-0.475,-0.4748,-0.4746,-0.4744,-0.4743,-0.4742,-0.474,-0.4739,-0.4738,-0.4738,-0.4737,-0.4737,-0.4737,-0.4737,-0.4737,-0.4735,-0.474,-0.4745,-0.4746,-0.4738,-0.4738,-0.4738,0,-0.4763,-0.4758,-0.4756,-0.4754,-0.4751,-0.475,-0.4749,-0.4747,-0.4746,-0.4744,-0.4744,-0.4743,-0.4742,-0.4742,-0.4741,-0.474,-0.4742,-0.474,-0.4742,-0.4742,-0.4743,-0.4743,-0.4749,-0.4741,-0.4741,-0.4741,-0.4741,0,-0.4761,-0.4759,-0.4756,-0.4755,-0.4754,-0.4751,-0.475,-0.4749,-0.4748,-0.4748,-0.4746,-0.4745,-0.4743,-0.4744,-0.4743,-0.4744,-0.4744,-0.4744,-0.4744,-0.4744,-0.4745,-0.4745,-0.4745,-0.4742,-0.4741,-0.4741,-0.4741,0,-0.4761,-0.4759,-0.4756,-0.4754,-0.4754,-0.4753,-0.4752,-0.4751,-0.475,-0.475,-0.475,-0.4748,-0.4749,-0.4748,-0.4747,-0.4747,-0.475,-0.4749,-0.475,-0.475,-0.4753,-0.4754,-0.476,-0.4762,-0.4752,-0.4753,-0.4753,0,-0.476,-0.4759,-0.4757,-0.4756,-0.4755,-0.4754,-0.4754,-0.4752,-0.4752,-0.4751,-0.4752,-0.4752,-0.4752,-0.4753,-0.4753,-0.4754,-0.4754,-0.4756,-0.4754,-0.4755,-0.4756,-0.4756,-0.4757,-0.4757,-0.4757,-0.4757,-0.4757,0,-0.4759,-0.4759,-0.4758,-0.4757,-0.4757,-0.4756,-0.4756,-0.4756,-0.4754,-0.4755,-0.4755,-0.4756,-0.4757,-0.4758,-0.4759,-0.4759,-0.4758,-0.4758,-0.4759,-0.4759,-0.4761,-0.4762,-0.4753,-0.4757,-0.4757,-0.4757,-0.4757,-0.4757,-0.4759,-0.4759,-0.4759,-0.4758,-0.4758,-0.4758,-0.4759,-0.4758,-0.4759,-0.4759,-0.4759,-0.476,-0.4761,-0.4762,-0.4763,-0.4765,-0.4764,-0.4765,-0.4765,-0.4766,-0.4767,-0.476,-0.4765,-0.4765,-0.4765,-0.4765,-0.4765,0,-0.476,-0.476,-0.476,-0.476,-0.476,-0.476,-0.476,-0.4761,-0.4762,-0.4762,-0.4763,-0.4765,-0.4767,-0.4768,-0.477,-0.4772,-0.4772,-0.4773,-0.4773,-0.4773,-0.4767,-0.4767,-0.4773,-0.4773,-0.4773,-0.4773,-0.4773,-0.4773,-0.476,-0.4761,-0.4761,-0.4762,-0.4762,-0.4763,-0.4764,-0.4765,-0.4766,-0.4768,-0.477,-0.477,-0.4772,-0.4775,-0.4777,-0.4777,-0.4779,-0.478,-0.478,-0.4774,-0.4774,-0.4773,-0.4773,-0.478,-0.478,-0.4787,-0.4787,-0.4787]}]]